Flag for Liechtenstein Weather past 2 weeks in Vaduz, Liechtenstein

Now
36 °F

Clear.


Feels Like: 31 °F
Forecast: 18 / 35 °F
Wind: 6 mph from Southeast

Location: Vaduz

Current Time: Feb 27, 2015 at 2:15:57 AM

Latest Report: Feb 27, 2015 at 1:00 AM


Visibility: 13 mi

Pressure: 30.00 "Hg

Humidity: 43%

Dew point: 15 °F

Location of VaduzLocation

Historic Weather in Vaduz — Graph

°F

Vaduz temperature yesterday

Maximum temperature yesterday: 47 °F (at 4:00 PM)
Minimum temperature yesterday: 32 °F (at 8:00 AM)
Average temperature yesterday: 39 °F

Past Weeks' High & Low Weather Summary

 TemperatureHumidityPressure
High54 °F (Feb 21, 2:00 PM)100% (Feb 12, 1:00 AM)30.74 "Hg (Feb 12, 1:00 AM)
Low17 °F (Feb 13, 7:00 AM)22% (Feb 20, 9:00 PM)29.44 "Hg (Feb 21, 1:00 PM)
Average34 °F78%30.10 "Hg
* Reported Feb 12 1:00 AM — Feb 27 1:00 AM, Vaduz, Weather by CustomWeather, © 2015

Note: Actual official high and low records may vary slightly from our data, if they occured in-between our weather recording intervals... More about our weather records

Advertising

Vaduz weather history for previous 24 hours

 ConditionsComfort  
Time TempWeatherWind HumidityBarometerVisibility
1:00 AM
Fri, Feb 27
36 °FClear.6 mph43%30.00 "Hg12 mi
12:00 AM37 °FChilly.6 mph42%30.01 "HgN/A
11:00 PM
Thu, Feb 26
37 °FChilly.7 mph41%30.03 "HgN/A
10:00 PM37 °FClear.7 mph44%30.05 "Hg16 mi
9:00 PM35 °FChilly.5 mph59%30.07 "HgN/A
8:00 PM36 °FChilly.5 mph58%30.07 "HgN/A
7:00 PM35 °FClear.1 mph73%30.08 "Hg19 mi
6:00 PM40 °FChilly.1 mph49%30.06 "HgN/A
5:00 PM43 °FQuite cool.3 mph42%30.05 "HgN/A
4:00 PM47 °FSunny.5 mph35%30.05 "Hg7 mi
3:00 PM46 °FCool.1 mph30%30.07 "HgN/A
2:00 PM45 °FCool.2 mph36%30.10 "HgN/A
1:00 PM44 °FSunny.3 mph47%30.13 "Hg7 mi
12:00 PM41 °FQuite cool.5 mph43%30.18 "HgN/A
11:00 AM38 °FChilly.6 mph50%30.21 "HgN/A
10:00 AM36 °FSunny.7 mph55%30.24 "Hg7 mi
9:00 AM32 °FChilly.6 mph60%30.27 "HgN/A
8:00 AM32 °FChilly.7 mph63%30.27 "HgN/A
Weather by CustomWeather, © 2015

See weather overviewHow to use our weather pages